[[{"header":{"parameterUnit":"m.s-1","parameterCategory":2,"la1":30.2991,"la2":30.254,"lo1":-89.0895,"lo2":-89.0444,"dy":0.0017,"dx":0.0017,"nx":28,"ny":28,"refTime":"2025-04-22T03:00:00:Z","depth":"0","parameterNumber":2,"parameterNumberName":"U-component_of_CURRENTS"},"data":[0,0,0,0,0,0,0,0,0,0,0,0,0,0,0,0,0,0,0,0,0,0,0,0,0,0,0,0,0,0,0,0,0,0,0,0,0,0,0,0,0,0,0,0,0,0,0,0,0,0,0,0,0,0,0,0,0,0,0.2107,0.2108,0,0.2184,0.2185,0.2186,0.2153,0.2151,0.215,0.2148,0.2158,0.216,0.2162,0,0,0,0,0,0,0,0,0,0,0,0,0,0.1984,0.1986,0.2107,0.2108,0.2109,0.2184,0.2185,0.2186,0.2153,0.2151,0.2149,0.2147,0.2158,0.216,0.2162,0,0,0,0,0,0,0,0,0,0,0,0,0,0.2045,0.1986,0.2107,0.2103,0.2104,0.2184,0.2185,0.2186,0.2154,0.2151,0.2149,0.2146,0.2157,0.216,0.2162,0.223,0,0,0.2171,0.2172,0,0,0,0,0,0,0,0,0.2041,0.2049,0.2103,0.2104,0.2105,0.2158,0.2146,0.2198,0.2154,0.2133,0.2148,0.2145,0.2155,0.2158,0.2176,0.223,0.2231,0.2171,0.2173,0.2174,0.2175,0,0,0,0,0,0,0,0.2037,0.2046,0.2135,0.2104,0.2105,0.2116,0.2122,0.2156,0.2154,0.2134,0.2133,0.2145,0.2155,0.2174,0.2176,0.2231,0.2171,0.2174,0.2175,0.2176,0.2331,0.2334,0,0,0,0,0,0,0.2032,0.2042,0.2133,0.2138,0.2068,0.2121,0.2126,0.2142,0.2155,0.2156,0.2147,0.2144,0.217,0.2173,0.2176,0.2227,0.2174,0.2177,0.2178,0.2329,0.2332,0.2335,0,0,0,0,0,0,0.2029,0.204,0.213,0.2093,0.2105,0.2125,0.2143,0.2145,0.2162,0.2166,0.2165,0.2162,0.2168,0.2172,0.2216,0.2228,0.2178,0.218,0.2326,0.233,0.2333,0.2348,0,0,0,0,0,0,0.2026,0.2038,0.2052,0.2093,0.2107,0.219,0.2146,0.2148,0.2175,0.217,0.218,0.2178,0.2167,0.2212,0.2218,0.2231,0.2183,0.2323,0.2328,0.2332,0.2345,0.2352,0.2358,0,0,0,0,0,0.2021,0.2056,0.2052,0.2063,0.2124,0.2193,0.2202,0.2205,0.2178,0.2207,0.2206,0.2177,0.2245,0.2217,0.2224,0.2237,0.2321,0.2326,0.2332,0.2341,0.235,0.2358,0,0,0,0,0,0,0.2011,0.2058,0.2054,0.21,0.2146,0.2188,0.2214,0.2217,0.2243,0.2228,0.2216,0.2218,0.226,0.2264,0.2233,0.2301,0.2277,0.2284,0.2282,0.229,0.2297,0.2249,0.2185,0,0,0,0,0,0.2017,0.2049,0.2098,0.2134,0.2158,0.2187,0.2213,0.2221,0.2249,0.2256,0.2262,0.2272,0.2295,0.2302,0.233,0.2374,0.2359,0.2389,0.2395,0.2401,0.2371,0.2383,0.2387,0.2353,0.2353,0.2353,0,0,0.202,0.2052,0.2067,0.2134,0.2162,0.2198,0.2196,0.2246,0.2261,0.2256,0.2279,0.2304,0.2317,0.2358,0.2376,0.2355,0.2411,0.2408,0.2412,0.2378,0.2389,0.2392,0.2394,0.2357,0.2356,0.2355,0,0,0.2046,0.2074,0.2106,0.2146,0.2202,0.2222,0.2238,0.229,0.2296,0.2343,0.2334,0.2364,0.2408,0.241,0.2415,0.2485,0.2454,0.2505,0.2487,0.25,0.2501,0.2502,0.2506,0.2507,0.2498,0.2498,0.2498,0,0.204,0.2085,0.213,0.2171,0.2191,0.2228,0.2258,0.2287,0.2341,0.2344,0.2349,0.2401,0.2422,0.2439,0.246,0.2493,0.2493,0.2447,0.2503,0.2504,0.2504,0.2508,0.2508,0.2499,0.2499,0.2499,0.2499,0,0.2087,0.2118,0.2146,0.219,0.2228,0.2268,0.2306,0.2336,0.2345,0.236,0.2396,0.2435,0.2449,0.2479,0.2485,0.2507,0.2505,0.2515,0.2468,0.2508,0.2511,0.2511,0.2501,0.2501,0.25,0.25,0,0,0.2061,0.2156,0.2156,0.2172,0.2235,0.2267,0.2296,0.2328,0.2321,0.2377,0.237,0.2431,0.244,0.2449,0.2474,0.2486,0.2511,0.2497,0.2497,0.2473,0.2532,0.2524,0.2524,0.2529,0.2529,0.2529,0.2537,0,0.2068,0.2137,0.2177,0.2211,0.2243,0.2274,0.229,0.232,0.234,0.2351,0.2381,0.24,0.2432,0.2442,0.2461,0.2498,0.2509,0.2506,0.2519,0.2519,0.2484,0.2523,0.242,0.2418,0.2537,0.2537,0.2537,0,0.2076,0.2122,0.2167,0.2209,0.222,0.2236,0.2245,0.2273,0.2295,0.2309,0.2326,0.235,0.2377,0.2405,0.2453,0.245,0.2484,0.2511,0.2513,0.2487,0.2511,0.2398,0.2414,0.2223,0.2537,0.2537,0.2537,0,0.2024,0.2096,0.2125,0.2145,0.2208,0.2207,0.2226,0.2249,0.2257,0.2277,0.2275,0.2312,0.2326,0.2373,0.2437,0.2445,0.2483,0.2506,0.2526,0.2526,0.2428,0.2419,0.2228,0.253,0.253,0.253,0.253,0,0.2006,0.2019,0.21,0.2115,0.2117,0.2172,0.2159,0.2183,0.2204,0.2198,0.2246,0.2243,0.2319,0.2355,0.2415,0.2466,0.2469,0.2512,0.2525,0.2437,0.2429,0.225,0.2194,0.253,0.253,0.253,0.253,0,0.1941,0.2001,0.2029,0.2089,0.2097,0.2095,0.2118,0.2111,0.2144,0.2137,0.2141,0.219,0.2239,0.2314,0.2388,0.2432,0.239,0.2506,0.2393,0.2393,0.2239,0.2191,0.2044,0.1997,0.2522,0.2522,0.2522,0,0.192,0.1936,0.199,0.1996,0.2016,0.2025,0.2021,0.2066,0.2064,0.2098,0.2087,0.2136,0.2171,0.2275,0.2361,0.2453,0.2351,0.2393,0.2395,0.2196,0.2153,0.2099,0.2067,0.2279,0.2277,0.2275,0.2274,0,0.1871,0.1887,0.1917,0.1927,0.1927,0.1924,0.1932,0.1926,0.1971,0.1978,0.2004,0.2043,0.2149,0.2201,0.2313,0.2353,0.2217,0.2362,0.2172,0.1952,0.1861,0.1834,0.2304,0.2258,0.226,0.2261,0.2262,0.2262,0.1819,0.1818,0.1854,0.1851,0.185,0.1826,0.1799,0.1821,0.182,0.1818,0.1896,0.1923,0.2001,0.2161,0.217,0.2052,0.2142,0.1974,0.1937,0.1904,0.1826,0.2264,0.223,0.2232,0.2233,0.2234,0.2235,0,0.1749,0.1763,0.1772,0.1766,0.173,0.1752,0.1735,0.17,0.168,0.1718,0.1742,0.1768,0.1776,0.1803,0.1763,0.1632,0.1591,0.1512,0.1358,0.1359,0.1735,0.1687,0.1511,0.1511,0.1511,0.1511,0.1511,0.1512,0.1716,0.1698,0.1707,0.1648,0.1637,0.1557,0.1532,0.1507,0.1521,0.1494,0.1498,0.1542,0.1517,0.1331,0.1133,0.1105,0.0957,0.0926,0.0928,0.1097,0.1135,0.117,0.1104,0.0809,0.0809,0.05,0.0497,0.0495]},{"header":{"parameterUnit":"m.s-1","parameterCategory":2,"la1":30.2991,"la2":30.254,"lo1":-89.0895,"lo2":-89.0444,"dy":0.0017,"dx":0.0017,"nx":28,"ny":28,"refTime":"2025-04-22T03:00:00:Z","depth":"0","parameterNumber":3,"parameterNumberName":"V-component_of_CURRENTS"},"data":[0,0,0,0,0,0,0,0,0,0,0,0,0,0,0,0,0,0,0,0,0,0,0,0,0,0,0,0,0,0,0,0,0,0,0,0,0,0,0,0,0,0,0,0,0,0,0,0,0,0,0,0,0,0,0,0,0,0,-0.0017,-0.0016,0,0.0029,0.0029,0.0029,0.0067,0.0068,0.0068,0.0068,0.0093,0.0093,0.0093,0,0,0,0,0,0,0,0,0,0,0,0,0,-0.0099,-0.0097,-0.0017,-0.0016,-0.0016,0.0028,0.0029,0.003,0.0067,0.0068,0.0068,0.0069,0.0093,0.0093,0.0093,0,0,0,0,0,0,0,0,0,0,0,0,0,-0.006,-0.0097,-0.0017,0.0009,0.0011,0.0028,0.0029,0.003,0.0067,0.0068,0.0068,0.0069,0.0093,0.0093,0.0093,0.0082,0,0,0.0095,0.0095,0,0,0,0,0,0,0,0,-0.0062,-0.0057,0.0004,0.0007,0.001,0.0043,0.0009,0.0046,0.0067,0.0045,0.0068,0.0069,0.0074,0.0076,0.0083,0.0083,0.0084,0.0095,0.0095,0.0095,0.0095,0,0,0,0,0,0,0,-0.0065,-0.0059,0.0,0.0005,0.0008,0.0009,0.0015,0.0016,0.0055,0.0047,0.005,0.0056,0.0076,0.0082,0.0084,0.0085,0.0095,0.0095,0.0095,0.0095,0.0087,0.0087,0,0,0,0,0,0,-0.0068,-0.0061,-0.0001,0.0002,-0.0024,0.001,0.0017,0.0032,0.0055,0.006,0.0055,0.0057,0.0081,0.0083,0.0084,0.0074,0.0095,0.0095,0.0095,0.0088,0.0087,0.0087,0,0,0,0,0,0,-0.007,-0.0063,-0.0003,-0.0029,-0.0021,0.0011,0.0027,0.0032,0.0039,0.0062,0.0066,0.0057,0.0082,0.0084,0.0084,0.0075,0.0095,0.0096,0.0088,0.0088,0.0087,0.0051,0,0,0,0,0,0,-0.0073,-0.0064,-0.0058,-0.0029,-0.002,-0.0002,0.0026,0.0032,0.0042,0.0046,0.0064,0.0068,0.0083,0.0083,0.0084,0.0076,0.0096,0.0089,0.0088,0.0087,0.0053,0.0049,0.0046,0,0,0,0,0,-0.0075,-0.007,-0.0058,-0.0051,-0.0011,-0.0002,0.0002,0.0026,0.0041,0.0036,0.0054,0.0067,0.0079,0.0083,0.0084,0.0076,0.0089,0.0088,0.0087,0.0054,0.005,0.0046,0,0,0,0,0,0,-0.0094,-0.0065,-0.0051,-0.0033,-0.0023,0.0004,0.0004,0.0021,0.0031,0.0036,0.0059,0.0062,0.0061,0.007,0.0074,0.0072,0.0087,0.0086,0.0061,0.0058,0.0054,0.0059,0.0096,0,0,0,0,0,-0.0097,-0.0089,-0.0064,-0.0051,-0.0049,-0.0024,-0.0017,-0.0002,0.0013,0.002,0.0033,0.0048,0.0058,0.0059,0.0068,0.006,0.0081,0.0057,0.0054,0.0051,0.0056,0.0089,0.009,0.0084,0.0084,0.0084,0,0,-0.0098,-0.0083,-0.0076,-0.0056,-0.0045,-0.0049,-0.0019,-0.0013,-0.0014,0.0018,0.0017,0.0036,0.0054,0.0052,0.0052,0.0058,0.0058,0.005,0.0047,0.0054,0.0089,0.0089,0.009,0.0083,0.0083,0.0083,0,0,-0.0115,-0.0088,-0.0097,-0.0094,-0.0083,-0.0068,-0.007,-0.0049,-0.0039,-0.0039,-0.0011,0.0005,0.0008,0.0028,0.0037,0.002,0.0042,0.0017,0.0001,0.0033,0.0034,0.0035,0.0039,0.0041,0.0013,0.0012,0.0012,0,-0.0122,-0.0122,-0.01,-0.0115,-0.011,-0.0081,-0.0093,-0.0083,-0.0064,-0.0051,-0.0047,-0.001,0.0,0.0018,0.0011,0.0013,0.0026,0.0014,0.003,0.0031,0.0033,0.0037,0.004,0.0011,0.0011,0.0011,0.0011,0,-0.0154,-0.0153,-0.016,-0.0165,-0.016,-0.0164,-0.0146,-0.0138,-0.0119,-0.0099,-0.0077,-0.0054,-0.0025,-0.0026,-0.0016,0.0003,0.0004,0.0024,0.004,0.0032,0.0036,0.0039,0.0008,0.0009,0.0009,0.001,0,0,-0.0168,-0.0181,-0.0183,-0.0186,-0.0184,-0.0176,-0.0181,-0.0164,-0.0143,-0.0132,-0.0104,-0.0092,-0.0059,-0.0047,-0.0025,-0.0005,0.0007,0.0008,0.0011,0.0013,0.0057,0.006,0.0064,0.0032,0.0033,0.0033,0.0046,0,-0.0202,-0.0233,-0.023,-0.0245,-0.0252,-0.0226,-0.0224,-0.02,-0.0173,-0.014,-0.0106,-0.0075,-0.0074,-0.0051,-0.0033,0.0011,0.0018,0.0,0.0065,0.0066,0.0072,0.007,0.0153,0.0173,0.0049,0.005,0.0051,0,-0.0236,-0.0247,-0.0274,-0.0264,-0.0263,-0.0266,-0.0229,-0.0223,-0.0175,-0.015,-0.0113,-0.0077,-0.0044,-0.0036,0.0015,0.0004,0.0021,0.0045,0.0047,0.007,0.0077,0.0166,0.0184,0.0204,0.0056,0.0056,0.0055,0,-0.0244,-0.027,-0.0285,-0.0287,-0.028,-0.0274,-0.0263,-0.0222,-0.0195,-0.0146,-0.011,-0.007,-0.0032,-0.0002,0.0034,0.003,0.0091,0.0097,0.0109,0.0109,0.0203,0.021,0.0255,0.0128,0.0128,0.0128,0.0128,0,-0.0267,-0.0274,-0.0289,-0.0291,-0.0285,-0.028,-0.0252,-0.023,-0.0185,-0.0139,-0.011,-0.0061,-0.0017,0.0024,0.0041,0.0085,0.0096,0.0108,0.012,0.0189,0.0193,0.0234,0.0209,0.0128,0.0128,0.0128,0.0128,0,-0.0261,-0.0279,-0.0286,-0.0291,-0.0287,-0.0276,-0.0243,-0.0211,-0.0182,-0.012,-0.0102,-0.0043,0.0012,0.0042,0.01,0.0103,0.0158,0.0146,0.0205,0.0224,0.0248,0.0217,0.0235,0.0257,0.0165,0.0166,0.0166,0,-0.0256,-0.0267,-0.0277,-0.0271,-0.0271,-0.0255,-0.023,-0.0205,-0.0166,-0.0102,-0.0064,-0.0006,0.0063,0.0128,0.0165,0.0197,0.0183,0.0254,0.0264,0.0262,0.0236,0.0199,0.0214,0.0366,0.0368,0.0369,0.037,0,-0.0243,-0.0252,-0.0257,-0.0253,-0.0236,-0.0208,-0.0179,-0.0147,-0.0105,-0.0046,0.003,0.0084,0.0153,0.0252,0.0274,0.0289,0.028,0.0284,0.0294,0.0402,0.0356,0.0381,0.0314,0.0384,0.0383,0.0382,0.0381,0.038,-0.0222,-0.0228,-0.0241,-0.023,-0.0207,-0.0163,-0.0131,-0.008,-0.0009,0.0086,0.0116,0.0233,0.0325,0.0395,0.039,0.0442,0.037,0.0462,0.0422,0.0383,0.0413,0.0347,0.0421,0.0419,0.0419,0.0418,0.0417,0,-0.0197,-0.0215,-0.0213,-0.02,-0.0167,-0.0157,-0.0093,-0.0046,0.0048,0.0161,0.025,0.0433,0.0536,0.0574,0.0632,0.0609,0.0595,0.0579,0.0578,0.0587,0.0568,0.0588,0.0688,0.0688,0.0688,0.0688,0.0688,0.0688,-0.0185,-0.0196,-0.0208,-0.017,-0.0149,-0.0097,-0.0055,0.0023,0.0112,0.0291,0.0434,0.0534,0.0641,0.0669,0.0707,0.0698,0.0676,0.0653,0.0598,0.0619,0.0606,0.0594,0.061,0.0713,0.0713,0.0687,0.0687,0.0687]}],[{"header":{"parameterUnit":"m.s-1","parameterCategory":2,"la1":30.2991,"la2":30.254,"lo1":-89.0895,"lo2":-89.0444,"dy":0.0017,"dx":0.0017,"nx":28,"ny":28,"refTime":"2025-04-22T03:00:00:Z","depth":"2","parameterNumber":2,"parameterNumberName":"U-component_of_CURRENTS"},"data":[0,0,0,0,0,0,0,0,0,0,0,0,0,0,0,0,0,0,0,0,0,0,0,0,0,0,0,0,0,0,0,0,0,0,0,0,0,0,0,0,0,0,0,0,0,0,0,0,0,0,0,0,0,0,0,0,0,0,0.0975,0.0975,0,0.0975,0.0975,0.0975,0.0979,0.098,0.098,0.098,0.0977,0.0977,0.0977,0,0,0,0,0,0,0,0,0,0,0,0,0,0.0965,0.0966,0.0975,0.0975,0.0975,0.0975,0.0975,0.0975,0.0979,0.098,0.098,0.098,0.0977,0.0977,0.0977,0,0,0,0,0,0,0,0,0,0,0,0,0,0.0968,0.0966,0.0975,0.0977,0.0977,0.0975,0.0975,0.0975,0.0979,0.098,0.098,0.098,0.0978,0.0977,0.0977,0.0974,0,0,0.0977,0.0976,0,0,0,0,0,0,0,0,0.0968,0.0969,0.0977,0.0977,0.0977,0.0977,0.097,0.0974,0.0979,0.0979,0.098,0.098,0.0977,0.0976,0.0977,0.0974,0.0974,0.0977,0.0976,0.0976,0.0976,0,0,0,0,0,0,0,0.0968,0.0969,0.0976,0.0977,0.0977,0.0972,0.0973,0.0971,0.0978,0.0979,0.0979,0.0978,0.0977,0.0977,0.0977,0.0974,0.0977,0.0976,0.0976,0.0976,0.1033,0.1034,0,0,0,0,0,0,0.0968,0.0969,0.0976,0.0976,0.0972,0.0973,0.0973,0.0977,0.0978,0.0978,0.0978,0.0978,0.0977,0.0977,0.0977,0.1049,0.0976,0.0976,0.0976,0.1031,0.1033,0.1035,0,0,0,0,0,0,0.0967,0.0968,0.0976,0.0971,0.0972,0.0973,0.0977,0.0977,0.1002,0.0977,0.0977,0.1005,0.0978,0.0977,0.1005,0.1046,0.0976,0.0976,0.1029,0.1032,0.1034,0.1145,0,0,0,0,0,0,0.0967,0.0969,0.0988,0.0971,0.0972,0.1004,0.0977,0.0977,0.0999,0.1,0.1,0.0998,0.0978,0.1006,0.1005,0.1045,0.0976,0.1027,0.103,0.1033,0.1139,0.1151,0.1161,0,0,0,0,0,0.0967,0.1004,0.0989,0.099,0.0993,0.1006,0.1007,0.1007,0.1001,0.1027,0.1024,0.0999,0.1024,0.1007,0.1006,0.1047,0.1026,0.1029,0.1033,0.1135,0.1149,0.1161,0,0,0,0,0,0,0.103,0.1006,0.099,0.1023,0.1022,0.1007,0.104,0.1025,0.1043,0.1053,0.1022,0.1021,0.106,0.1037,0.1019,0.1071,0.102,0.1024,0.1098,0.1111,0.1122,0.1127,0.0976,0,0,0,0,0,0.1045,0.1059,0.1035,0.1068,0.1071,0.1056,0.1066,0.1061,0.1064,0.1073,0.1067,0.1064,0.1069,0.1079,0.1077,0.1109,0.1112,0.1132,0.1143,0.1152,0.1156,0.1196,0.1212,0.1047,0.1047,0.1047,0,0,0.108,0.107,0.108,0.1081,0.1084,0.1098,0.1065,0.1097,0.111,0.107,0.111,0.1105,0.1085,0.1122,0.1136,0.1112,0.1209,0.1157,0.1165,0.1164,0.1202,0.1218,0.1232,0.1049,0.1049,0.1048,0,0,0.1156,0.1149,0.1182,0.1179,0.1182,0.1164,0.1177,0.1173,0.118,0.1205,0.1182,0.1207,0.1209,0.121,0.1206,0.1275,0.1263,0.1275,0.1339,0.138,0.1394,0.1406,0.1467,0.1483,0.1283,0.1283,0.1283,0,0.1203,0.1224,0.12,0.1226,0.1228,0.1196,0.1226,0.1228,0.1233,0.1242,0.1236,0.1258,0.125,0.1284,0.1312,0.1301,0.1327,0.1294,0.1396,0.1407,0.1418,0.1477,0.1494,0.1289,0.1288,0.1288,0.1287,0,0.1287,0.1303,0.1331,0.1332,0.1337,0.1365,0.1341,0.1359,0.1354,0.1343,0.1384,0.1381,0.1393,0.1399,0.1379,0.1449,0.1447,0.1406,0.1366,0.1442,0.1499,0.1515,0.1297,0.1295,0.1293,0.1292,0,0,0.1381,0.1386,0.1392,0.1395,0.139,0.1398,0.1426,0.143,0.1446,0.1464,0.1496,0.152,0.1518,0.1514,0.1502,0.1537,0.1652,0.1515,0.1515,0.1582,0.177,0.1722,0.1734,0.1634,0.1636,0.1638,0.1793,0,0.1451,0.1502,0.1483,0.1522,0.1538,0.1507,0.1525,0.1525,0.1524,0.1548,0.1554,0.1584,0.156,0.1584,0.162,0.1624,0.1693,0.1615,0.1679,0.1682,0.1634,0.175,0.1452,0.156,0.1808,0.1811,0.1813,0,0.1526,0.154,0.1594,0.1585,0.1592,0.1612,0.1618,0.1631,0.1642,0.1648,0.168,0.1674,0.1732,0.17,0.1785,0.174,0.1781,0.1791,0.1796,0.1716,0.1661,0.1516,0.1578,0.1838,0.1836,0.1834,0.1833,0,0.1579,0.1608,0.1647,0.1648,0.1647,0.167,0.1673,0.1676,0.1681,0.1727,0.1742,0.179,0.1821,0.1872,0.1889,0.1858,0.1977,0.193,0.1939,0.1937,0.1676,0.1646,0.2029,0.2029,0.2029,0.2028,0.2028,0,0.1638,0.1665,0.1678,0.1697,0.1728,0.1721,0.1754,0.176,0.1777,0.1782,0.1808,0.1827,0.1866,0.1914,0.1941,0.199,0.2031,0.1983,0.1979,0.171,0.1682,0.1895,0.1877,0.2034,0.2033,0.2032,0.2031,0,0.168,0.1698,0.1731,0.1749,0.1755,0.1781,0.1787,0.1796,0.1825,0.1839,0.1862,0.1887,0.1951,0.199,0.2068,0.2051,0.2102,0.2118,0.1812,0.177,0.2033,0.2019,0.2162,0.2162,0.2161,0.2161,0.2161,0,0.1699,0.1726,0.176,0.1771,0.1784,0.1811,0.1811,0.1826,0.1824,0.1855,0.1857,0.1935,0.1954,0.2056,0.2005,0.2064,0.2147,0.1872,0.1755,0.2068,0.205,0.2037,0.2024,0.1471,0.1465,0.1461,0.1457,0,0.1715,0.1741,0.1764,0.1787,0.1804,0.1798,0.1808,0.1811,0.1814,0.1832,0.185,0.1883,0.191,0.1782,0.184,0.1841,0.1828,0.1781,0.2183,0.1483,0.1428,0.1407,0.1415,0.1415,0.1419,0.1422,0.1424,0.1426,0.1716,0.1738,0.1769,0.1782,0.1789,0.1771,0.1749,0.1752,0.1748,0.17,0.1766,0.1669,0.161,0.1506,0.1502,0.1478,0.1637,0.1538,0.1547,0.1563,0.1454,0.1402,0.1365,0.1369,0.1372,0.1375,0.1378,0,0.1692,0.1725,0.1744,0.1753,0.1729,0.1739,0.1715,0.1663,0.1632,0.1553,0.1537,0.1225,0.1124,0.1113,0.0958,0.1015,0.0973,0.102,0.0882,0.0922,0.0959,0.0815,0.0559,0.0558,0.0557,0.0556,0,0,0.1686,0.1705,0.1715,0.1677,0.1668,0.1591,0.1558,0.1501,0.1415,0.1223,0.1038,0.1029,0.099,0.0698,0.07,0.0597,0.0779,0.0589,0.1223,0.1095,0.1131,0.1215,0.1036,0,0,0,0,0]},{"header":{"parameterUnit":"m.s-1","parameterCategory":2,"la1":30.2991,"la2":30.254,"lo1":-89.0895,"lo2":-89.0444,"dy":0.0017,"dx":0.0017,"nx":28,"ny":28,"refTime":"2025-04-22T03:00:00:Z","depth":"2","parameterNumber":3,"parameterNumberName":"V-component_of_CURRENTS"},"data":[0,0,0,0,0,0,0,0,0,0,0,0,0,0,0,0,0,0,0,0,0,0,0,0,0,0,0,0,0,0,0,0,0,0,0,0,0,0,0,0,0,0,0,0,0,0,0,0,0,0,0,0,0,0,0,0,0,0,-0.0639,-0.0638,0,-0.0588,-0.0587,-0.0587,-0.0584,-0.0585,-0.0586,-0.0586,-0.0555,-0.0553,-0.0552,0,0,0,0,0,0,0,0,0,0,0,0,0,-0.0692,-0.0692,-0.0639,-0.0638,-0.0637,-0.0588,-0.0587,-0.0587,-0.0584,-0.0585,-0.0586,-0.0587,-0.0555,-0.0554,-0.0552,0,0,0,0,0,0,0,0,0,0,0,0,0,-0.0658,-0.0691,-0.0639,-0.0631,-0.0629,-0.0588,-0.0587,-0.0586,-0.0584,-0.0585,-0.0586,-0.0587,-0.0556,-0.0554,-0.0552,-0.0519,0,0,-0.0545,-0.0544,0,0,0,0,0,0,0,0,-0.066,-0.0656,-0.0632,-0.0631,-0.063,-0.0594,-0.0595,-0.0565,-0.0584,-0.0601,-0.0586,-0.0587,-0.0569,-0.0566,-0.0553,-0.0518,-0.0516,-0.0545,-0.0544,-0.0543,-0.0542,0,0,0,0,0,0,0,-0.0662,-0.0658,-0.0618,-0.0632,-0.063,-0.0616,-0.0612,-0.0589,-0.058,-0.0599,-0.0599,-0.0594,-0.0569,-0.0556,-0.0553,-0.0516,-0.0545,-0.0543,-0.0542,-0.0541,-0.0527,-0.0528,0,0,0,0,0,0,-0.067,-0.066,-0.062,-0.0617,-0.0648,-0.0614,-0.061,-0.0604,-0.058,-0.0577,-0.0593,-0.0594,-0.0559,-0.0555,-0.0552,-0.0555,-0.0543,-0.0541,-0.0539,-0.0526,-0.0527,-0.0528,0,0,0,0,0,0,-0.0672,-0.0667,-0.0622,-0.0638,-0.0631,-0.0612,-0.0605,-0.0603,-0.0606,-0.0575,-0.0573,-0.0602,-0.0559,-0.0555,-0.0556,-0.0552,-0.054,-0.0538,-0.0525,-0.0526,-0.0527,-0.0533,0,0,0,0,0,0,-0.0673,-0.0668,-0.0673,-0.0638,-0.063,-0.0602,-0.0604,-0.0601,-0.0601,-0.0602,-0.0582,-0.0579,-0.056,-0.0559,-0.0553,-0.0549,-0.0536,-0.0524,-0.0525,-0.0527,-0.0532,-0.0534,-0.0537,0,0,0,0,0,-0.0675,-0.0672,-0.0673,-0.0669,-0.0636,-0.0602,-0.0596,-0.0586,-0.0601,-0.0595,-0.0599,-0.058,-0.0566,-0.0558,-0.0551,-0.0546,-0.0523,-0.0525,-0.0527,-0.053,-0.0534,-0.0537,0,0,0,0,0,0,-0.0694,-0.067,-0.0671,-0.0661,-0.0638,-0.0602,-0.0599,-0.0595,-0.0592,-0.0606,-0.0586,-0.0582,-0.058,-0.057,-0.0562,-0.0551,-0.0543,-0.0544,-0.0549,-0.0551,-0.0554,-0.0547,-0.0534,0,0,0,0,0,-0.0702,-0.0698,-0.0667,-0.0661,-0.0653,-0.0632,-0.0622,-0.0616,-0.0604,-0.0604,-0.0593,-0.059,-0.0579,-0.0574,-0.0561,-0.0551,-0.053,-0.0548,-0.0551,-0.0552,-0.0546,-0.0526,-0.0525,-0.0535,-0.0535,-0.0535,0,0,-0.0708,-0.0695,-0.0693,-0.0666,-0.0653,-0.063,-0.0629,-0.0618,-0.0605,-0.0601,-0.0595,-0.0595,-0.0581,-0.0571,-0.057,-0.0564,-0.0538,-0.0555,-0.0557,-0.0549,-0.0527,-0.0526,-0.0525,-0.0536,-0.0536,-0.0536,0,0,-0.0708,-0.0708,-0.0701,-0.0682,-0.0664,-0.0644,-0.0647,-0.0622,-0.062,-0.0613,-0.0612,-0.0614,-0.0597,-0.058,-0.0571,-0.0581,-0.0553,-0.0589,-0.0589,-0.0569,-0.0568,-0.0566,-0.0529,-0.0524,-0.0589,-0.0589,-0.0589,0,-0.0718,-0.0703,-0.0693,-0.0676,-0.0663,-0.0654,-0.0637,-0.0622,-0.0605,-0.0604,-0.0617,-0.0604,-0.0594,-0.0573,-0.0584,-0.0582,-0.0569,-0.0573,-0.057,-0.0568,-0.0566,-0.0529,-0.0523,-0.0589,-0.0589,-0.0589,-0.0589,0,-0.0701,-0.0695,-0.0689,-0.0666,-0.065,-0.0636,-0.0613,-0.061,-0.0618,-0.0605,-0.0603,-0.0596,-0.0591,-0.0589,-0.0589,-0.0574,-0.0567,-0.0574,-0.0556,-0.0565,-0.0526,-0.052,-0.059,-0.059,-0.0589,-0.0589,0,0,-0.0703,-0.0683,-0.0682,-0.0674,-0.0648,-0.063,-0.0616,-0.0592,-0.059,-0.0586,-0.0576,-0.0571,-0.0585,-0.0578,-0.0578,-0.0561,-0.0536,-0.057,-0.0569,-0.0521,-0.0486,-0.0391,-0.0375,-0.0549,-0.0548,-0.0548,-0.046,0,-0.0693,-0.0672,-0.0661,-0.064,-0.0623,-0.0614,-0.0597,-0.0582,-0.0578,-0.0566,-0.0562,-0.0556,-0.0574,-0.0582,-0.0571,-0.0544,-0.0523,-0.0559,-0.0494,-0.0492,-0.0396,-0.0365,-0.0323,-0.0234,-0.0454,-0.0453,-0.0452,0,-0.067,-0.0662,-0.0646,-0.063,-0.0624,-0.0616,-0.0601,-0.0586,-0.0566,-0.0564,-0.0564,-0.056,-0.0538,-0.0558,-0.0509,-0.0537,-0.0517,-0.0493,-0.0489,-0.0392,-0.0385,-0.0264,-0.0215,-0.0441,-0.0442,-0.0443,-0.0444,0,-0.0664,-0.0647,-0.0642,-0.0634,-0.0612,-0.0619,-0.0616,-0.0598,-0.0576,-0.057,-0.0546,-0.0541,-0.0517,-0.0506,-0.0465,-0.0495,-0.0393,-0.0426,-0.0315,-0.0308,-0.0251,-0.0239,-0.0388,-0.0388,-0.0388,-0.0388,-0.0388,0,-0.0641,-0.0629,-0.065,-0.0641,-0.0636,-0.0633,-0.0623,-0.0617,-0.0594,-0.0546,-0.0557,-0.0505,-0.0505,-0.0448,-0.0442,-0.0337,-0.0375,-0.0292,-0.0272,-0.0251,-0.0241,-0.0413,-0.0417,-0.0385,-0.0386,-0.0386,-0.0387,0,-0.0605,-0.0621,-0.0609,-0.0622,-0.0628,-0.0629,-0.0615,-0.0593,-0.0585,-0.0519,-0.0511,-0.0461,-0.0381,-0.0351,-0.0298,-0.027,-0.0207,-0.0167,-0.0127,-0.0102,-0.0145,-0.0151,-0.0033,-0.0029,-0.0026,-0.0023,-0.002,0,-0.0571,-0.0571,-0.0596,-0.0594,-0.0601,-0.0605,-0.0591,-0.059,-0.0554,-0.0472,-0.0424,-0.034,-0.0237,-0.0109,-0.0044,0.0033,-0.0077,0.0083,0.0039,-0.0113,-0.0105,-0.0117,-0.0127,0.0106,0.0109,0.0112,0.0114,0,-0.0504,-0.0534,-0.053,-0.0541,-0.0545,-0.0523,-0.0512,-0.0477,-0.0445,-0.0369,-0.0256,-0.0172,-0.002,0.0104,0.0203,0.0226,0.0072,0.0145,-0.0016,0.0017,0.0028,0.0032,0.0015,0.0138,0.0136,0.0134,0.0133,0.0132,-0.0451,-0.0448,-0.047,-0.0471,-0.0466,-0.0434,-0.0403,-0.0353,-0.0269,-0.011,-0.0072,0.0119,0.0187,0.0424,0.0389,0.0334,0.034,0.0285,0.0272,0.0257,0.0265,0.0283,0.0443,0.0442,0.0442,0.0441,0.0441,0,-0.0373,-0.0389,-0.039,-0.0393,-0.0369,-0.0387,-0.033,-0.0277,-0.0153,0.0058,0.0212,0.0394,0.0529,0.0507,0.05,0.0493,0.0421,0.0413,0.0309,0.0292,0.0274,0.0275,0.0459,0.0458,0.0457,0.0456,0,0,-0.0329,-0.0323,-0.0342,-0.0304,-0.0299,-0.0258,-0.022,-0.0127,0.0015,0.0277,0.0467,0.072,0.0676,0.067,0.0605,0.0509,0.0387,0.0487,0.0498,0.037,0.035,0.0253,0.0244,0,0,0,0,0]}],[{"header":{"parameterUnit":"m.s-1","parameterCategory":2,"la1":30.2991,"la2":30.254,"lo1":-89.0895,"lo2":-89.0444,"dy":0.0017,"dx":0.0017,"nx":28,"ny":28,"refTime":"2025-04-22T03:00:00:Z","depth":"4","parameterNumber":2,"parameterNumberName":"U-component_of_CURRENTS"},"data":[0,0,0,0,0,0,0,0,0,0,0,0,0,0,0,0,0,0,0,0,0,0,0,0,0,0,0,0,0,0,0,0,0,0,0,0,0,0,0,0,0,0,0,0,0,0,0,0,0,0,0,0,0,0,0,0,0,0,-0.0164,-0.0164,0,-0.016,-0.016,-0.0159,-0.0158,-0.0158,-0.0158,-0.0158,-0.0085,-0.0083,-0.0081,0,0,0,0,0,0,0,0,0,0,0,0,0,-0.0167,-0.0167,-0.0164,-0.0164,-0.0164,-0.016,-0.0159,-0.0159,-0.0158,-0.0158,-0.0158,-0.0158,-0.0086,-0.0084,-0.0081,0,0,0,0,0,0,0,0,0,0,0,0,0,-0.0164,-0.0167,-0.0164,-0.0162,-0.0162,-0.016,-0.0159,-0.0159,-0.0158,-0.0158,-0.0158,-0.0158,-0.0087,-0.0084,-0.0081,-0.0062,0,0,-0.0072,-0.0071,0,0,0,0,0,0,0,0,-0.0165,-0.0164,-0.0163,-0.0163,-0.0162,-0.0159,-0.0134,-0.0124,-0.0158,-0.0159,-0.0158,-0.0158,-0.0104,-0.0099,-0.0099,-0.0059,-0.0056,-0.0072,-0.007,-0.0069,-0.0068,0,0,0,0,0,0,0,-0.0165,-0.0164,-0.0162,-0.0163,-0.0162,-0.0161,-0.0161,-0.0132,-0.013,-0.0159,-0.0159,-0.0159,-0.0103,-0.0102,-0.0097,-0.0055,-0.0072,-0.0069,-0.0067,-0.0066,0.0012,0.0012,0,0,0,0,0,0,-0.0166,-0.0165,-0.0162,-0.0162,-0.0164,-0.0161,-0.016,-0.016,-0.0132,-0.0128,-0.0159,-0.0159,-0.0107,-0.0101,-0.0095,-0.0042,-0.0069,-0.0066,-0.0064,0.0012,0.0012,0.0013,0,0,0,0,0,0,-0.0166,-0.0165,-0.0162,-0.0163,-0.0163,-0.0161,-0.016,-0.016,-0.016,-0.0132,-0.0127,-0.016,-0.0107,-0.0099,-0.008,-0.004,-0.0065,-0.0062,0.0011,0.0012,0.0012,0.0046,0,0,0,0,0,0,-0.0166,-0.0165,-0.0168,-0.0163,-0.0163,-0.0162,-0.016,-0.016,-0.016,-0.016,-0.0131,-0.0125,-0.0106,-0.0085,-0.0077,-0.0037,-0.006,0.0011,0.0012,0.0012,0.0044,0.0047,0.005,0,0,0,0,0,-0.0166,-0.0167,-0.0168,-0.0168,-0.0165,-0.0162,-0.0162,-0.0161,-0.016,-0.0161,-0.0148,-0.0125,-0.0075,-0.0083,-0.0074,-0.0031,0.0011,0.0012,0.0012,0.0043,0.0047,0.005,0,0,0,0,0,0,-0.0166,-0.0167,-0.0168,-0.0168,-0.0167,-0.0162,-0.0164,-0.0161,-0.0153,-0.0153,-0.0127,-0.012,-0.0089,-0.0074,-0.0083,-0.001,-0.0025,-0.0023,-0.0005,-0.0001,0.0002,0.0029,-0.0057,0,0,0,0,0,-0.0169,-0.0175,-0.0169,-0.0173,-0.0171,-0.0168,-0.0167,-0.0166,-0.0158,-0.0155,-0.0133,-0.0108,-0.0078,-0.0054,-0.0036,0.0006,0.0023,0.0039,0.0042,0.0044,0.007,0.0098,0.0107,0.0015,0.0015,0.0015,0,0,-0.0172,-0.0173,-0.0177,-0.0174,-0.0174,-0.0168,-0.0168,-0.0168,-0.0157,-0.0145,-0.0124,-0.0104,-0.0072,-0.0031,-0.0012,-0.0009,0.0078,0.0045,0.0048,0.0073,0.01,0.0109,0.0118,0.0016,0.0015,0.0015,0,0,-0.0178,-0.018,-0.0184,-0.0181,-0.018,-0.0174,-0.0174,-0.0167,-0.0156,-0.0134,-0.0121,-0.0086,-0.0042,-0.0006,0.0019,0.0047,0.008,0.0061,0.012,0.0146,0.0154,0.0162,0.0193,0.0203,0.0078,0.0078,0.0078,0,-0.0174,-0.0179,-0.0185,-0.0183,-0.0175,-0.0176,-0.0167,-0.0158,-0.0144,-0.0123,-0.0125,-0.0049,-0.0026,0.0044,0.0067,0.0059,0.0083,0.0106,0.0152,0.016,0.0167,0.0197,0.0208,0.008,0.008,0.0079,0.0079,0,-0.0184,-0.0181,-0.0182,-0.0178,-0.0174,-0.0167,-0.0153,-0.0141,-0.0123,-0.0102,-0.0044,-0.0012,0.0046,0.0061,0.0087,0.0163,0.0165,0.014,0.0147,0.0179,0.0208,0.0218,0.0082,0.0082,0.0081,0.0081,0,0,-0.0166,-0.0183,-0.0178,-0.0171,-0.0165,-0.0157,-0.0138,-0.0104,-0.0069,-0.0045,0.0012,0.0077,0.011,0.0141,0.0173,0.0218,0.0292,0.0225,0.0226,0.0265,0.0369,0.0283,0.0286,0.0282,0.0284,0.0285,0.0368,0,-0.0158,-0.0158,-0.0164,-0.0147,-0.0138,-0.0128,-0.0102,-0.0076,-0.0038,0.0013,0.006,0.0125,0.0136,0.0192,0.0233,0.027,0.0323,0.0273,0.0327,0.0329,0.0255,0.0296,0.0292,0.0376,0.0379,0.0381,0.0382,0,-0.0146,-0.0148,-0.0137,-0.0117,-0.0109,-0.0093,-0.0037,-0.0014,0.0047,0.0091,0.0158,0.0189,0.0275,0.027,0.0362,0.0334,0.0376,0.0397,0.0399,0.032,0.0262,0.0338,0.0401,0.04,0.0398,0.0397,0.0396,0,-0.0122,-0.0115,-0.0104,-0.01,-0.0085,-0.0059,-0.0037,0.0017,0.0058,0.0154,0.0204,0.0278,0.0342,0.0383,0.0414,0.0415,0.0487,0.0477,0.0438,0.0432,0.0472,0.0463,0.0558,0.0558,0.0557,0.0557,0.0557,0,-0.0096,-0.0085,-0.0088,-0.0081,-0.0044,-0.0035,0.0029,0.007,0.0139,0.0192,0.0257,0.0301,0.0382,0.041,0.0433,0.0451,0.0497,0.047,0.0453,0.0481,0.0473,0.0479,0.0469,0.056,0.056,0.0559,0.0559,0,-0.0075,-0.008,-0.0066,-0.0049,-0.0035,-0.0005,0.0056,0.0095,0.0176,0.0248,0.0286,0.0354,0.0397,0.0429,0.0497,0.0481,0.0494,0.0491,0.0522,0.0501,0.0432,0.0423,0.0494,0.0492,0.049,0.0488,0.0487,0,-0.0072,-0.0065,-0.0047,-0.0039,-0.0028,0.0018,0.0043,0.0118,0.0145,0.0249,0.0258,0.0345,0.0381,0.0397,0.0428,0.0462,0.0458,0.0478,0.0477,0.0452,0.0429,0.0422,0.0416,0.0484,0.0484,0.0483,0.0483,0,-0.0069,-0.0061,-0.0054,-0.0038,-0.0013,0.001,0.0042,0.0068,0.0143,0.0226,0.0256,0.0298,0.034,0.0362,0.0393,0.0402,0.0465,0.0459,0.0464,0.0464,0.0441,0.0418,0.0414,0.0476,0.0477,0.0477,0.0478,0,-0.0066,-0.0063,-0.0058,-0.0041,-0.0021,-0.0026,0.0005,0.0025,0.0072,0.0178,0.0172,0.0248,0.0317,0.0328,0.0323,0.0348,0.0373,0.038,0.039,0.0398,0.0323,0.0276,0.0267,0,0,0,0,0,-0.0061,-0.0067,-0.0068,-0.0058,-0.0043,-0.004,-0.002,0.0003,0.0076,0.0093,0.0144,0.0173,0.023,0.0235,0.0251,0.028,0.0361,0.0295,0.0369,0.0439,0.0447,0.0365,0,0,0,0,0,0,-0.0065,-0.0061,-0.0077,-0.0085,-0.0084,-0.0078,-0.0074,-0.0032,-0.0036,0.005,0.0063,0.0158,0.0187,0.0231,0.0249,0.0259,0.03,0.0344,0.0343,0.0435,0.0442,0.0448,0.0366,0,0,0,0,0]},{"header":{"parameterUnit":"m.s-1","parameterCategory":2,"la1":30.2991,"la2":30.254,"lo1":-89.0895,"lo2":-89.0444,"dy":0.0017,"dx":0.0017,"nx":28,"ny":28,"refTime":"2025-04-22T03:00:00:Z","depth":"4","parameterNumber":3,"parameterNumberName":"V-component_of_CURRENTS"},"data":[0,0,0,0,0,0,0,0,0,0,0,0,0,0,0,0,0,0,0,0,0,0,0,0,0,0,0,0,0,0,0,0,0,0,0,0,0,0,0,0,0,0,0,0,0,0,0,0,0,0,0,0,0,0,0,0,0,0,0.0335,0.0335,0,0.0355,0.0356,0.0356,0.0349,0.0349,0.0348,0.0348,0.0338,0.0338,0.0338,0,0,0,0,0,0,0,0,0,0,0,0,0,0.0322,0.0322,0.0335,0.0335,0.0336,0.0355,0.0356,0.0356,0.0349,0.0349,0.0348,0.0348,0.0338,0.0338,0.0338,0,0,0,0,0,0,0,0,0,0,0,0,0,0.0333,0.0322,0.0335,0.0335,0.0335,0.0355,0.0356,0.0356,0.0349,0.0349,0.0348,0.0348,0.0337,0.0338,0.0338,0.0352,0,0,0.0338,0.0338,0,0,0,0,0,0,0,0,0.0333,0.0334,0.0335,0.0335,0.0335,0.0349,0.0347,0.0353,0.035,0.0344,0.0348,0.0347,0.0339,0.0339,0.0345,0.0351,0.0351,0.0338,0.0339,0.0339,0.0339,0,0,0,0,0,0,0,0.0332,0.0333,0.0343,0.0335,0.0335,0.0345,0.0345,0.0349,0.0344,0.0344,0.0344,0.0347,0.0339,0.0345,0.0344,0.0351,0.0338,0.0339,0.0339,0.0339,0.0395,0.0396,0,0,0,0,0,0,0.0329,0.0332,0.0342,0.0344,0.0332,0.0345,0.0346,0.0345,0.0345,0.0344,0.0347,0.0346,0.0345,0.0344,0.0344,0.0387,0.0339,0.0339,0.0339,0.0393,0.0395,0.0396,0,0,0,0,0,0,0.0328,0.0329,0.0342,0.0339,0.0341,0.0346,0.0345,0.0346,0.0356,0.0347,0.0346,0.0356,0.0344,0.0344,0.0365,0.0385,0.0339,0.0339,0.0392,0.0394,0.0396,0.0455,0,0,0,0,0,0,0.0328,0.0329,0.0336,0.0338,0.0341,0.0359,0.0346,0.0347,0.0358,0.0357,0.0355,0.0353,0.0344,0.0365,0.0365,0.0384,0.0339,0.039,0.0393,0.0395,0.0451,0.0459,0.0465,0,0,0,0,0,0.0327,0.0335,0.0336,0.0338,0.0347,0.036,0.0362,0.0363,0.0359,0.0369,0.0376,0.0353,0.0381,0.0367,0.0366,0.0386,0.0389,0.0392,0.0395,0.0448,0.0457,0.0465,0,0,0,0,0,0,0.0332,0.0335,0.0336,0.0345,0.0355,0.0359,0.0371,0.037,0.0384,0.0384,0.0374,0.0374,0.0399,0.0388,0.0372,0.041,0.038,0.0383,0.042,0.0429,0.0436,0.0435,0.0339,0,0,0,0,0,0.0337,0.0345,0.0349,0.0359,0.0365,0.037,0.0378,0.0378,0.0387,0.0392,0.0396,0.0401,0.0412,0.0416,0.0423,0.0445,0.0423,0.0458,0.0465,0.047,0.0471,0.0442,0.0445,0.0406,0.0406,0.0406,0,0,0.0341,0.0346,0.035,0.0362,0.037,0.0384,0.0374,0.0387,0.0404,0.0389,0.042,0.0426,0.0424,0.0452,0.0462,0.0445,0.0478,0.0474,0.0479,0.0476,0.0445,0.0449,0.0452,0.0409,0.0408,0.0408,0,0,0.0357,0.0359,0.0373,0.0383,0.0397,0.04,0.0406,0.0419,0.043,0.0464,0.0456,0.0475,0.0498,0.0498,0.0501,0.0549,0.0516,0.0555,0.0589,0.0562,0.0564,0.0566,0.0571,0.0572,0.0558,0.0558,0.0558,0,0.0364,0.0382,0.0381,0.0398,0.0411,0.0408,0.0428,0.044,0.0461,0.0476,0.0481,0.0518,0.0518,0.0539,0.0566,0.0563,0.0553,0.0557,0.0569,0.057,0.0571,0.0575,0.0576,0.0561,0.0561,0.0561,0.056,0,0.0389,0.0408,0.0418,0.0438,0.0448,0.0467,0.0477,0.0495,0.0514,0.0527,0.0564,0.0574,0.0591,0.0601,0.0605,0.0617,0.0613,0.058,0.0543,0.0578,0.0581,0.0581,0.0566,0.0565,0.0564,0.0563,0,0,0.0402,0.0431,0.0438,0.0457,0.0473,0.0485,0.051,0.0536,0.0558,0.0586,0.0613,0.065,0.0652,0.0656,0.0655,0.0645,0.0659,0.0627,0.0624,0.0626,0.0626,0.06,0.0597,0.0625,0.0625,0.0624,0.0636,0,0.043,0.0468,0.0475,0.0515,0.0535,0.0539,0.0564,0.0583,0.0608,0.0632,0.0639,0.0676,0.0672,0.0696,0.068,0.0659,0.0658,0.0661,0.0597,0.0596,0.0562,0.0595,0.0623,0.0636,0.0636,0.0636,0.0635,0,0.0462,0.0483,0.0525,0.0558,0.0568,0.0592,0.0628,0.065,0.067,0.0703,0.0721,0.0717,0.0727,0.0712,0.0685,0.0689,0.067,0.0651,0.0649,0.0599,0.0568,0.0587,0.0635,0.0635,0.0635,0.0635,0.0635,0,0.0479,0.0523,0.0559,0.0571,0.0601,0.0629,0.0651,0.0677,0.0717,0.075,0.0785,0.0768,0.079,0.0738,0.0714,0.0699,0.0674,0.0635,0.0597,0.0597,0.0588,0.0586,0.0612,0.0612,0.0612,0.0612,0.0612,0,0.0506,0.0536,0.0577,0.0595,0.0643,0.0658,0.0716,0.0742,0.0789,0.0831,0.0826,0.084,0.0799,0.0773,0.0722,0.067,0.0678,0.0612,0.0592,0.0619,0.062,0.059,0.0587,0.0612,0.0612,0.0612,0.0612,0,0.0513,0.0542,0.058,0.0627,0.0654,0.0685,0.077,0.0807,0.0862,0.0912,0.0933,0.092,0.0883,0.084,0.0772,0.0705,0.0641,0.0624,0.0695,0.0678,0.0581,0.0581,0.0564,0.0563,0.0562,0.0561,0.0561,0,0.0512,0.0537,0.06,0.0629,0.0657,0.0722,0.0768,0.0845,0.0874,0.0942,0.0941,0.0952,0.0927,0.0805,0.0756,0.0672,0.0651,0.0624,0.0568,0.0591,0.0573,0.0575,0.0576,0.0559,0.0559,0.0559,0.0559,0,0.0501,0.0531,0.0558,0.0625,0.0683,0.0743,0.0803,0.0831,0.0903,0.0974,0.0938,0.0898,0.0861,0.0765,0.0741,0.0662,0.0631,0.0615,0.0615,0.0562,0.0585,0.0569,0.0571,0.0556,0.0556,0.0557,0.0557,0,0.0488,0.0503,0.0551,0.0609,0.0679,0.0722,0.0763,0.0786,0.0834,0.0894,0.0874,0.0857,0.0865,0.0762,0.0709,0.0663,0.0621,0.0562,0.0563,0.0566,0.0554,0.0584,0.0543,0,0,0,0,0,0.0474,0.0495,0.0535,0.0592,0.066,0.0707,0.0763,0.0793,0.086,0.0827,0.0856,0.0812,0.0747,0.0702,0.0646,0.0684,0.0619,0.0612,0.0552,0.0541,0.0544,0.0525,0,0,0,0,0,0,0.0461,0.05,0.0521,0.0573,0.0612,0.0687,0.0719,0.0761,0.0715,0.0772,0.0718,0.0771,0.069,0.0791,0.064,0.0633,0.0574,0.0609,0.0607,0.0539,0.0542,0.0544,0.0526,0,0,0,0,0]}]]